DNO268 OTHH-OSDI

Flight info

Callsign DNO268
Flight time 2h 37m
Altitude 32000
Route LUBET L934 DAVUS/N0462F360 L602 GADSI M703 ANBAR DCT RAPLU G202 DAM
Aircraft B738/M-SDE2E3FGHIRWXY/LB1

Departure

Time 2026-04-14 12:30
Airport Hamad International Airport (OTHH)

Arrival

Time 2026-04-14 15:08
Airport Damascus International Airport (OSDI)
Time Latitude Longitude Altitude Speed Heading
2026-04-14 11:53 25.27084 51.61111 29 ft 0 kts 158°
2026-04-14 12:13 25.27095 51.61106 29 ft 4 kts 158°
2026-04-14 12:14 25.27120 51.61095 29 ft 4 kts 158°
2026-04-14 12:14 25.27145 51.61084 29 ft 4 kts 155°
2026-04-14 12:14 25.27166 51.61068 29 ft 4 kts 124°
2026-04-14 12:14 25.27174 51.61042 29 ft 4 kts 79°
2026-04-14 12:15 25.27168 51.61021 29 ft 4 kts 68°
2026-04-14 12:15 25.27163 51.61009 29 ft 0 kts 68°
2026-04-14 12:19 25.27183 51.61061 29 ft 14 kts 67°
2026-04-14 12:20 25.27241 51.61107 29 ft 13 kts
2026-04-14 12:20 25.27310 51.61169 29 ft 14 kts 68°
2026-04-14 12:20 25.27345 51.61265 29 ft 13 kts 68°
2026-04-14 12:20 25.27378 51.61356 29 ft 13 kts 68°
2026-04-14 12:21 25.27412 51.61447 29 ft 13 kts 68°
2026-04-14 12:21 25.27408 51.61541 28 ft 13 kts 136°
2026-04-14 12:21 25.27326 51.61583 28 ft 13 kts 158°
2026-04-14 12:21 25.27244 51.61619 28 ft 13 kts 159°
2026-04-14 12:22 25.27152 51.61660 28 ft 16 kts 158°
2026-04-14 12:22 25.27038 51.61711 28 ft 19 kts 158°
2026-04-14 12:22 25.26903 51.61771 28 ft 22 kts 159°
2026-04-14 12:22 25.26757 51.61832 28 ft 22 kts 158°
2026-04-14 12:23 25.26619 51.61895 28 ft 22 kts 158°
2026-04-14 12:23 25.26481 51.61955 28 ft 21 kts 158°
2026-04-14 12:23 25.26346 51.62015 29 ft 20 kts 158°
2026-04-14 12:23 25.26219 51.62071 29 ft 20 kts 158°
2026-04-14 12:24 25.26094 51.62126 29 ft 19 kts 158°
2026-04-14 12:24 25.26007 51.62164 29 ft 6 kts 158°
2026-04-14 12:24 25.26000 51.62167 29 ft 0 kts 158°
2026-04-14 12:24 25.25986 51.62173 29 ft 4 kts 158°
2026-04-14 12:25 25.25955 51.62187 29 ft 5 kts 158°
2026-04-14 12:25 25.25925 51.62201 29 ft 5 kts 159°
2026-04-14 12:25 25.25887 51.62217 29 ft 8 kts 159°
2026-04-14 12:25 25.25807 51.62252 29 ft 14 kts 158°
2026-04-14 12:26 25.25717 51.62292 29 ft 14 kts 158°
2026-04-14 12:26 25.25631 51.62330 29 ft 13 kts 158°
2026-04-14 12:26 25.25579 51.62399 28 ft 12 kts 89°
2026-04-14 12:26 25.25541 51.62477 27 ft 12 kts 149°
2026-04-14 12:27 25.25513 51.62555 27 ft 12 kts 78°
2026-04-14 12:27 25.25550 51.62634 28 ft 12 kts 49°
2026-04-14 12:27 25.25622 51.62644 27 ft 11 kts 340°
2026-04-14 12:27 25.25635 51.62639 26 ft 0 kts 339°
2026-04-14 12:29 25.25660 51.62629 28 ft 20 kts 339°
2026-04-14 12:29 25.25993 51.62482 28 ft 82 kts 338°
2026-04-14 12:29 25.26685 51.62177 23 ft 131 kts 339°
2026-04-14 12:30 25.27654 51.61771 137 ft 161 kts 342°
2026-04-14 12:30 25.28717 51.61299 567 ft 168 kts 340°
2026-04-14 12:30 25.29818 51.60814 1174 ft 167 kts 337°
2026-04-14 12:30 25.30899 51.60335 1736 ft 173 kts 338°
2026-04-14 12:31 25.32083 51.59805 2009 ft 195 kts 338°
2026-04-14 12:31 25.33433 51.59311 2147 ft 215 kts 355°
2026-04-14 12:31 25.34954 51.59603 2397 ft 229 kts 14°
2026-04-14 12:31 25.36552 51.60101 2631 ft 247 kts 14°
2026-04-14 12:32 25.38247 51.60611 3117 ft 256 kts 13°
2026-04-14 12:32 25.39972 51.61127 3737 ft 258 kts 13°
2026-04-14 12:32 25.41708 51.61643 3986 ft 258 kts 13°
2026-04-14 12:32 25.43445 51.62157 4016 ft 258 kts 13°
2026-04-14 12:33 25.45177 51.62669 4015 ft 257 kts 13°
2026-04-14 12:33 25.46916 51.63182 4026 ft 259 kts 12°
2026-04-14 12:33 25.48678 51.63636 4096 ft 261 kts 10°
2026-04-14 12:33 25.50451 51.64055 4704 ft 260 kts
2026-04-14 12:34 25.52213 51.64473 5471 ft 258 kts
2026-04-14 12:34 25.53976 51.64895 6123 ft 261 kts
2026-04-14 12:34 25.55764 51.65326 6744 ft 265 kts
2026-04-14 12:34 25.57579 51.65751 7295 ft 270 kts
2026-04-14 12:35 25.59440 51.65644 7909 ft 269 kts 346°
2026-04-14 12:35 25.61282 51.65180 8541 ft 274 kts 345°
2026-04-14 12:35 25.63158 51.64712 9162 ft 279 kts 345°
2026-04-14 12:35 25.65076 51.64239 9802 ft 284 kts 345°
2026-04-14 12:36 25.67029 51.63762 10329 ft 293 kts 345°
2026-04-14 12:36 25.69065 51.63267 10479 ft 315 kts 345°
2026-04-14 12:36 25.71274 51.62731 10635 ft 335 kts 345°
2026-04-14 12:36 25.73598 51.62092 10777 ft 353 kts 339°
2026-04-14 12:37 25.75922 51.61037 10939 ft 368 kts 334°
2026-04-14 12:37 25.78282 51.59844 11347 ft 375 kts 334°
2026-04-14 12:37 25.80680 51.58669 11875 ft 379 kts 334°
2026-04-14 12:37 25.83068 51.57489 12412 ft 381 kts 330°
2026-04-14 12:38 25.86611 51.53282 13571 ft 379 kts 297°
2026-04-14 12:38 25.87853 51.50689 14061 ft 383 kts 296°
2026-04-14 12:38 25.89089 51.48049 14521 ft 387 kts 296°
2026-04-14 12:39 25.90346 51.45379 15060 ft 390 kts 296°
2026-04-14 12:39 25.91450 51.43059 15562 ft 391 kts 297°
2026-04-14 12:39 25.92300 51.41286 15944 ft 391 kts 297°
2026-04-14 12:39 25.93591 51.38609 16469 ft 394 kts 297°
2026-04-14 12:40 25.94892 51.35917 16980 ft 397 kts 297°
2026-04-14 12:40 25.96200 51.33210 17499 ft 399 kts 297°
2026-04-14 12:40 25.97703 51.30616 17981 ft 404 kts 310°
2026-04-14 12:40 25.99827 51.28536 18468 ft 408 kts 319°
2026-04-14 12:41 26.02058 51.26588 18895 ft 410 kts 319°
2026-04-14 12:41 26.04298 51.24605 19289 ft 412 kts 319°
2026-04-14 12:41 26.06537 51.22597 19678 ft 415 kts 318°
2026-04-14 12:41 26.08786 51.20561 20072 ft 418 kts 318°
2026-04-14 12:42 26.11045 51.18510 20495 ft 419 kts 317°
2026-04-14 12:42 26.13308 51.16451 20909 ft 421 kts 317°
2026-04-14 12:42 26.15584 51.14381 21307 ft 424 kts 317°
2026-04-14 12:42 26.17879 51.12299 21690 ft 426 kts 317°
2026-04-14 12:43 26.20188 51.10209 22075 ft 428 kts 317°
2026-04-14 12:43 26.22475 51.08138 22447 ft 430 kts 317°
2026-04-14 12:43 26.24833 51.05998 22827 ft 432 kts 317°
2026-04-14 12:43 26.27118 51.03883 23167 ft 435 kts 316°
2026-04-14 12:44 26.29438 51.01707 23524 ft 436 kts 316°
2026-04-14 12:44 26.31765 50.99518 23843 ft 438 kts 316°
2026-04-14 12:44 26.34106 50.97320 24120 ft 440 kts 316°
2026-04-14 12:45 26.38817 50.92901 24665 ft 444 kts 316°
2026-04-14 12:45 26.41187 50.90678 24949 ft 446 kts 316°
2026-04-14 12:45 26.43570 50.88440 25198 ft 450 kts 316°
2026-04-14 12:45 26.45970 50.86185 25427 ft 452 kts 316°
2026-04-14 12:46 26.48384 50.83917 25716 ft 454 kts 315°
2026-04-14 12:46 26.50799 50.81645 25992 ft 455 kts 315°
2026-04-14 12:46 26.53227 50.79356 26242 ft 457 kts 315°
2026-04-14 12:46 26.55667 50.77056 26479 ft 459 kts 315°
2026-04-14 12:47 26.58116 50.74745 26711 ft 461 kts 315°
2026-04-14 12:47 26.60545 50.72453 26958 ft 463 kts 315°
2026-04-14 12:47 26.63014 50.70122 27188 ft 465 kts 315°
2026-04-14 12:47 26.65488 50.67788 27441 ft 466 kts 315°
2026-04-14 12:48 26.67979 50.65451 27773 ft 466 kts 315°
2026-04-14 12:48 26.70453 50.63136 28166 ft 464 kts 315°
2026-04-14 12:48 26.72928 50.60819 28556 ft 462 kts 315°
2026-04-14 12:48 26.75398 50.58503 28900 ft 462 kts 314°
2026-04-14 12:49 26.77865 50.56187 29235 ft 462 kts 314°
2026-04-14 12:49 26.80323 50.53876 29674 ft 460 kts 314°
2026-04-14 12:49 26.82762 50.51583 30160 ft 456 kts 314°
2026-04-14 12:49 26.85194 50.49294 30492 ft 456 kts 314°
2026-04-14 12:50 26.87623 50.47006 30730 ft 457 kts 314°
2026-04-14 12:50 26.92457 50.42442 31271 ft 457 kts 313°
2026-04-14 12:50 26.94885 50.40145 31599 ft 455 kts 313°
2026-04-14 12:51 26.97296 50.37862 31969 ft 453 kts 313°
2026-04-14 12:51 26.99707 50.35577 32265 ft 453 kts 313°
2026-04-14 12:51 27.02118 50.33289 32505 ft 454 kts 313°
2026-04-14 12:51 27.04530 50.31000 32754 ft 454 kts 313°
2026-04-14 12:52 27.06945 50.28706 33040 ft 454 kts 313°
2026-04-14 12:52 27.09356 50.26416 33330 ft 453 kts 313°
2026-04-14 12:52 27.11761 50.24131 33592 ft 453 kts 313°
2026-04-14 12:52 27.14130 50.21877 33845 ft 453 kts 313°
2026-04-14 12:53 27.16549 50.19598 34110 ft 454 kts 314°
2026-04-14 12:53 27.19061 50.17425 34368 ft 455 kts 316°
2026-04-14 12:53 27.21611 50.15335 34681 ft 453 kts 317°
2026-04-14 12:53 27.24167 50.13269 34933 ft 452 kts 317°
2026-04-14 12:54 27.26718 50.11193 35138 ft 452 kts 316°
2026-04-14 12:54 27.29255 50.09106 35350 ft 451 kts 316°
2026-04-14 12:54 27.31779 50.07014 35610 ft 449 kts 316°
2026-04-14 12:54 27.34261 50.04951 35850 ft 448 kts 316°
2026-04-14 12:55 27.36764 50.02863 36052 ft 447 kts 315°
2026-04-14 12:55 27.41709 49.98557 36085 ft 449 kts 314°
2026-04-14 12:56 27.46604 49.94224 36084 ft 445 kts 314°
2026-04-14 12:56 27.51453 49.89944 36097 ft 442 kts 314°
2026-04-14 12:57 27.56291 49.85683 36089 ft 440 kts 314°
2026-04-14 12:57 27.61100 49.81445 36087 ft 438 kts 314°
2026-04-14 12:58 27.65878 49.77229 36092 ft 439 kts 314°
2026-04-14 12:58 27.70701 49.72969 36100 ft 440 kts 314°
2026-04-14 12:59 27.75542 49.68688 36092 ft 442 kts 314°
2026-04-14 12:59 27.80394 49.64385 36089 ft 444 kts 314°
2026-04-14 13:00 27.85219 49.60070 36103 ft 445 kts 314°
2026-04-14 13:00 27.90084 49.55714 36088 ft 447 kts 314°
2026-04-14 13:01 27.94973 49.51334 36090 ft 447 kts 314°
2026-04-14 13:01 27.99846 49.46964 36088 ft 447 kts 314°
2026-04-14 13:02 28.04707 49.42591 36100 ft 446 kts 314°
2026-04-14 13:02 28.09543 49.38186 36082 ft 445 kts 314°
2026-04-14 13:03 28.14321 49.33822 36088 ft 444 kts 314°
2026-04-14 13:03 28.19134 49.29428 36105 ft 443 kts 314°
2026-04-14 13:04 28.23922 49.25052 36095 ft 442 kts 314°
2026-04-14 13:04 28.28712 49.20664 36093 ft 441 kts 314°
2026-04-14 13:05 28.33469 49.16269 36096 ft 440 kts 313°
2026-04-14 13:05 28.38183 49.11912 36100 ft 440 kts 314°
2026-04-14 13:06 28.43107 49.07731 36099 ft 444 kts 319°
2026-04-14 13:06 28.48286 49.03860 36098 ft 445 kts 319°
2026-04-14 13:07 28.53464 48.99985 36113 ft 445 kts 319°
2026-04-14 13:07 28.58614 48.96060 36100 ft 445 kts 319°
2026-04-14 13:08 28.63749 48.92117 36096 ft 445 kts 319°
2026-04-14 13:08 28.68886 48.88167 36099 ft 446 kts 319°
2026-04-14 13:09 28.73998 48.84233 36099 ft 446 kts 319°
2026-04-14 13:09 28.79155 48.80262 36095 ft 447 kts 319°
2026-04-14 13:10 28.84309 48.76299 36100 ft 447 kts 319°
2026-04-14 13:10 28.89469 48.72343 36111 ft 447 kts 319°
2026-04-14 13:11 28.94636 48.68376 36100 ft 447 kts 319°
2026-04-14 13:11 28.99795 48.64408 36091 ft 446 kts 319°
2026-04-14 13:12 29.04938 48.60447 36095 ft 445 kts 319°
2026-04-14 13:12 29.10074 48.56485 36098 ft 445 kts 319°
2026-04-14 13:13 29.15199 48.52526 36096 ft 444 kts 319°
2026-04-14 13:13 29.20283 48.48595 36095 ft 444 kts 319°
2026-04-14 13:14 29.25396 48.44636 36105 ft 444 kts 319°
2026-04-14 13:14 29.30510 48.40672 36098 ft 443 kts 319°
2026-04-14 13:15 29.35616 48.36709 36095 ft 443 kts 319°
2026-04-14 13:15 29.40719 48.32743 36104 ft 443 kts 319°
2026-04-14 13:16 29.45892 48.28877 36096 ft 446 kts 322°
2026-04-14 13:16 29.51255 48.25367 36087 ft 447 kts 324°
2026-04-14 13:17 29.56685 48.21877 36096 ft 447 kts 324°
2026-04-14 13:17 29.62093 48.18349 36091 ft 446 kts 323°
2026-04-14 13:18 29.67491 48.14794 36093 ft 446 kts 323°
2026-04-14 13:18 29.72876 48.11237 36111 ft 446 kts 323°
2026-04-14 13:19 29.78261 48.07677 36097 ft 446 kts 323°
2026-04-14 13:19 29.83644 48.04115 36088 ft 446 kts 323°
2026-04-14 13:20 29.89020 48.00554 36102 ft 445 kts 323°
2026-04-14 13:20 29.94391 47.96990 36090 ft 445 kts 323°
2026-04-14 13:21 29.99717 47.93449 36086 ft 444 kts 322°
2026-04-14 13:21 30.04407 47.89041 36084 ft 428 kts 305°
2026-04-14 13:22 30.08282 47.83819 36097 ft 428 kts 305°
2026-04-14 13:22 30.12143 47.78592 36092 ft 428 kts 305°
2026-04-14 13:23 30.16030 47.73375 36090 ft 428 kts 305°
2026-04-14 13:23 30.19932 47.68156 36102 ft 429 kts 305°
2026-04-14 13:24 30.23835 47.62933 36097 ft 429 kts 305°
2026-04-14 13:24 30.29661 47.55124 36099 ft 429 kts 305°
2026-04-14 13:25 30.32905 47.50768 36118 ft 429 kts 305°
2026-04-14 13:26 30.40702 47.40278 36093 ft 430 kts 306°
2026-04-14 13:26 30.44601 47.35023 36098 ft 429 kts 305°
2026-04-14 13:27 30.48487 47.29777 36117 ft 429 kts 306°
2026-04-14 13:27 30.52375 47.24522 36096 ft 429 kts 305°
2026-04-14 13:28 30.56130 47.19167 36092 ft 423 kts 298°
2026-04-14 13:28 30.58666 47.13107 36117 ft 416 kts 288°
2026-04-14 13:29 30.60778 47.06901 36096 ft 416 kts 288°
2026-04-14 13:29 30.62919 47.00645 36099 ft 416 kts 288°
2026-04-14 13:30 30.65073 46.94394 36095 ft 416 kts 288°
2026-04-14 13:30 30.67228 46.88155 36098 ft 416 kts 288°
2026-04-14 13:31 30.69371 46.81944 36109 ft 417 kts 288°
2026-04-14 13:31 30.71527 46.75684 36104 ft 417 kts 288°
2026-04-14 13:32 30.73679 46.69421 36104 ft 417 kts 288°
2026-04-14 13:32 30.75817 46.63190 36104 ft 417 kts 288°
2026-04-14 13:33 30.77961 46.56928 36112 ft 417 kts 288°
2026-04-14 13:33 30.80105 46.50656 36104 ft 417 kts 288°
2026-04-14 13:34 30.83312 46.41252 36108 ft 416 kts 288°
2026-04-14 13:35 30.85443 46.34986 36099 ft 416 kts 288°
2026-04-14 13:35 30.87558 46.28757 36129 ft 416 kts 288°
2026-04-14 13:36 30.89683 46.22488 36113 ft 416 kts 288°
2026-04-14 13:36 30.91801 46.16229 36102 ft 416 kts 288°
2026-04-14 13:37 30.93916 46.09965 36109 ft 415 kts 288°
2026-04-14 13:37 30.96028 46.03700 36136 ft 415 kts 288°
2026-04-14 13:38 30.98136 45.97433 36123 ft 415 kts 288°
2026-04-14 13:38 31.00225 45.91210 36116 ft 415 kts 288°
2026-04-14 13:39 31.02328 45.84937 36118 ft 415 kts 288°
2026-04-14 13:39 31.04425 45.78668 36121 ft 414 kts 288°
2026-04-14 13:40 31.06521 45.72389 36123 ft 415 kts 288°
2026-04-14 13:40 31.08610 45.66121 36123 ft 414 kts 288°
2026-04-14 13:41 31.10684 45.59887 36124 ft 414 kts 288°
2026-04-14 13:41 31.12764 45.53620 36124 ft 414 kts 288°
2026-04-14 13:42 31.14843 45.47348 36130 ft 414 kts 288°
2026-04-14 13:42 31.16922 45.41062 36128 ft 414 kts 288°
2026-04-14 13:43 31.18984 45.34816 36124 ft 414 kts 288°
2026-04-14 13:43 31.21055 45.28530 36134 ft 414 kts 288°
2026-04-14 13:44 31.23123 45.22240 36143 ft 415 kts 288°
2026-04-14 13:44 31.25188 45.15949 36127 ft 415 kts 288°
2026-04-14 13:45 31.27253 45.09647 36135 ft 414 kts 288°
2026-04-14 13:45 31.29311 45.03351 36138 ft 415 kts 288°
2026-04-14 13:46 31.31354 44.97091 36140 ft 414 kts 288°
2026-04-14 13:46 31.33408 44.90785 36136 ft 415 kts 288°
2026-04-14 13:47 31.35458 44.84478 36139 ft 414 kts 288°
2026-04-14 13:47 31.37504 44.78171 36139 ft 414 kts 288°
2026-04-14 13:48 31.39545 44.71868 36144 ft 414 kts 288°
2026-04-14 13:48 31.41587 44.65551 36145 ft 414 kts 288°
2026-04-14 13:49 31.43609 44.59281 36147 ft 414 kts 288°
2026-04-14 13:49 31.45643 44.52961 36146 ft 414 kts 288°
2026-04-14 13:50 31.47673 44.46642 36151 ft 414 kts 288°
2026-04-14 13:50 31.49701 44.40318 36157 ft 414 kts 288°
2026-04-14 13:51 31.51724 44.33996 36155 ft 414 kts 288°
2026-04-14 13:51 31.53746 44.27668 36151 ft 414 kts 288°
2026-04-14 13:52 31.55766 44.21331 36162 ft 414 kts 288°
2026-04-14 13:52 31.57766 44.15047 36155 ft 414 kts 288°
2026-04-14 13:53 31.59775 44.08718 36159 ft 414 kts 288°
2026-04-14 13:53 31.61782 44.02387 36169 ft 414 kts 288°
2026-04-14 13:54 31.63785 43.96052 36165 ft 413 kts 288°
2026-04-14 13:54 31.65786 43.89713 36163 ft 413 kts 288°
2026-04-14 13:55 31.67768 43.83420 36160 ft 413 kts 288°
2026-04-14 13:55 31.69755 43.77099 36165 ft 413 kts 288°
2026-04-14 13:56 31.71739 43.70775 36167 ft 412 kts 288°
2026-04-14 13:56 31.73707 43.64489 36167 ft 412 kts 288°
2026-04-14 13:57 31.75681 43.58174 36168 ft 412 kts 288°
2026-04-14 13:57 31.77651 43.51856 36169 ft 411 kts 288°
2026-04-14 13:58 31.79616 43.45544 36172 ft 411 kts 288°
2026-04-14 13:58 31.81578 43.39227 36167 ft 411 kts 288°
2026-04-14 13:59 31.83537 43.32908 36167 ft 411 kts 288°
2026-04-14 13:59 31.85479 43.26626 36149 ft 411 kts 288°
2026-04-14 14:00 31.87424 43.20318 36172 ft 410 kts 288°
2026-04-14 14:00 31.89370 43.13998 36168 ft 411 kts 288°
2026-04-14 14:01 31.91315 43.07665 36168 ft 411 kts 288°
2026-04-14 14:01 31.93257 43.01327 36173 ft 412 kts 288°
2026-04-14 14:02 31.95199 42.94980 36164 ft 412 kts 288°
2026-04-14 14:02 31.97138 42.88630 36168 ft 412 kts 288°
2026-04-14 14:03 31.99077 42.82265 36166 ft 412 kts 288°
2026-04-14 14:03 32.00998 42.75946 36173 ft 412 kts 288°
2026-04-14 14:04 32.02928 42.69586 36175 ft 412 kts 288°
2026-04-14 14:04 32.04858 42.63211 36166 ft 412 kts 288°
2026-04-14 14:05 32.06782 42.56842 36174 ft 412 kts 288°
2026-04-14 14:05 32.08703 42.50473 36177 ft 412 kts 288°
2026-04-14 14:06 32.10895 42.44282 36159 ft 415 kts 303°
2026-04-14 14:06 32.15112 42.39564 36174 ft 426 kts 325°
2026-04-14 14:07 32.20556 42.36607 36175 ft 432 kts 332°
2026-04-14 14:07 32.26115 42.33889 36189 ft 432 kts 332°
2026-04-14 14:08 32.31663 42.31126 36179 ft 432 kts 332°
2026-04-14 14:08 32.37193 42.28313 36173 ft 432 kts 331°
2026-04-14 14:09 32.42670 42.25503 36175 ft 432 kts 331°
2026-04-14 14:09 32.48178 42.22670 36172 ft 431 kts 331°
2026-04-14 14:10 32.53686 42.19834 36167 ft 431 kts 331°
2026-04-14 14:10 32.59192 42.16997 36171 ft 431 kts 331°
2026-04-14 14:11 32.64691 42.14160 36173 ft 431 kts 331°
2026-04-14 14:11 32.70193 42.11317 36171 ft 430 kts 331°
2026-04-14 14:12 32.75682 42.08477 36189 ft 430 kts 331°
2026-04-14 14:12 32.81142 42.05648 36175 ft 430 kts 331°
2026-04-14 14:13 32.86634 42.02798 36168 ft 430 kts 331°
2026-04-14 14:13 32.92123 41.99947 36171 ft 430 kts 331°
2026-04-14 14:14 32.96679 41.97578 36172 ft 429 kts 332°
2026-04-14 14:14 33.03051 41.94259 36169 ft 429 kts 332°
2026-04-14 14:15 33.07632 41.91869 36174 ft 428 kts 332°
2026-04-14 14:15 33.13047 41.89041 36176 ft 428 kts 332°
2026-04-14 14:16 33.18500 41.86190 36173 ft 427 kts 332°
2026-04-14 14:16 33.23944 41.83338 36169 ft 426 kts 332°
2026-04-14 14:17 33.32088 41.79066 36180 ft 425 kts 331°
2026-04-14 14:17 33.34604 41.77278 36163 ft 416 kts 315°
2026-04-14 14:17 33.36504 41.74725 36170 ft 410 kts 302°
2026-04-14 14:18 33.38643 41.68492 36167 ft 408 kts 279°
2026-04-14 14:18 33.39021 41.61753 36170 ft 408 kts 274°
2026-04-14 14:19 33.39219 41.54955 36171 ft 408 kts 274°
2026-04-14 14:19 33.39442 41.48160 36144 ft 409 kts 274°
2026-04-14 14:20 33.39695 41.41354 36161 ft 409 kts 274°
2026-04-14 14:20 33.39957 41.34547 36174 ft 410 kts 275°
2026-04-14 14:21 33.40220 41.27723 36170 ft 411 kts 275°
2026-04-14 14:21 33.40478 41.20928 36166 ft 412 kts 275°
2026-04-14 14:22 33.40734 41.14069 36168 ft 412 kts 275°
2026-04-14 14:22 33.40986 41.07204 36162 ft 413 kts 275°
2026-04-14 14:23 33.41234 41.00336 36163 ft 413 kts 275°
2026-04-14 14:23 33.41479 40.93467 36143 ft 413 kts 275°
2026-04-14 14:24 33.41720 40.86594 36164 ft 413 kts 275°
2026-04-14 14:24 33.41955 40.79775 36170 ft 413 kts 275°
2026-04-14 14:25 33.42189 40.72907 36162 ft 412 kts 275°
2026-04-14 14:25 33.42418 40.66044 36169 ft 412 kts 275°
2026-04-14 14:26 33.42644 40.59184 36167 ft 412 kts 275°
2026-04-14 14:26 33.42866 40.52326 36169 ft 412 kts 275°
2026-04-14 14:27 33.43083 40.45471 36174 ft 412 kts 275°
2026-04-14 14:27 33.43297 40.38611 36164 ft 412 kts 275°
2026-04-14 14:28 33.43508 40.31764 36161 ft 412 kts 275°
2026-04-14 14:28 33.43714 40.24902 36177 ft 412 kts 275°
2026-04-14 14:29 33.43917 40.18039 36159 ft 412 kts 276°
2026-04-14 14:29 33.44116 40.11182 36173 ft 412 kts 275°
2026-04-14 14:30 33.44311 40.04372 36159 ft 412 kts 276°
2026-04-14 14:30 33.44502 39.97526 36169 ft 412 kts 276°
2026-04-14 14:31 33.44690 39.90677 36165 ft 411 kts 276°
2026-04-14 14:31 33.44874 39.83838 36161 ft 410 kts 276°
2026-04-14 14:32 33.45055 39.77001 36172 ft 410 kts 276°
2026-04-14 14:32 33.45232 39.70170 36156 ft 410 kts 276°
2026-04-14 14:33 33.45405 39.63343 36160 ft 410 kts 276°
2026-04-14 14:33 33.45574 39.56525 36169 ft 409 kts 276°
2026-04-14 14:34 33.45820 39.46341 36160 ft 409 kts 276°
2026-04-14 14:35 33.45980 39.39520 36155 ft 409 kts 276°
2026-04-14 14:35 33.46136 39.32717 36161 ft 409 kts 276°
2026-04-14 14:36 33.46288 39.25909 36155 ft 409 kts 276°
2026-04-14 14:36 33.46436 39.19113 36152 ft 408 kts 275°
2026-04-14 14:37 33.46580 39.12347 36157 ft 409 kts 275°
2026-04-14 14:37 33.46722 39.05532 36153 ft 409 kts 275°
2026-04-14 14:38 33.46887 38.98717 36151 ft 409 kts 276°
2026-04-14 14:38 33.47166 38.91908 36147 ft 409 kts 277°
2026-04-14 14:39 33.47449 38.85088 36147 ft 410 kts 277°
2026-04-14 14:39 33.47716 38.78266 36149 ft 410 kts 277°
2026-04-14 14:40 33.47973 38.71473 36150 ft 410 kts 276°
2026-04-14 14:40 33.48197 38.64636 36143 ft 412 kts 274°
2026-04-14 14:41 33.47872 38.57758 36144 ft 414 kts 270°
2026-04-14 14:41 33.47429 38.50869 36151 ft 414 kts 270°
2026-04-14 14:42 33.47018 38.43989 36147 ft 414 kts 270°
2026-04-14 14:42 33.46630 38.37154 36147 ft 414 kts 271°
2026-04-14 14:43 33.46240 38.30275 36147 ft 414 kts 270°
2026-04-14 14:43 33.45846 38.23387 36151 ft 414 kts 270°
2026-04-14 14:44 33.45450 38.16497 35553 ft 415 kts 271°
2026-04-14 14:44 33.45273 38.13074 34993 ft 411 kts 272°
2026-04-14 14:44 33.45111 38.09647 34363 ft 411 kts 272°
2026-04-14 14:44 33.44954 38.06224 33609 ft 413 kts 273°
2026-04-14 14:45 33.44794 38.02782 32864 ft 414 kts 273°
2026-04-14 14:45 33.44634 37.99382 32128 ft 415 kts 273°
2026-04-14 14:45 33.44466 37.95885 31375 ft 416 kts 272°
2026-04-14 14:45 33.44299 37.92468 30625 ft 417 kts 272°
2026-04-14 14:46 33.44127 37.88981 29772 ft 420 kts 272°
2026-04-14 14:46 33.43954 37.85490 28851 ft 421 kts 272°
2026-04-14 14:46 33.43779 37.81982 28131 ft 419 kts 271°
2026-04-14 14:46 33.43603 37.78520 27529 ft 414 kts 271°
2026-04-14 14:47 33.43430 37.75104 26966 ft 409 kts 271°
2026-04-14 14:47 33.43258 37.71720 26331 ft 406 kts 271°
2026-04-14 14:47 33.43088 37.68327 25605 ft 407 kts 270°
2026-04-14 14:47 33.42919 37.65002 25426 ft 393 kts 270°
2026-04-14 14:48 33.42753 37.61768 25279 ft 386 kts 270°
2026-04-14 14:48 33.42591 37.58620 25140 ft 374 kts 270°
2026-04-14 14:48 33.42433 37.55559 25005 ft 362 kts 270°
2026-04-14 14:48 33.42282 37.52648 24933 ft 349 kts 270°
2026-04-14 14:49 33.42134 37.49798 24920 ft 335 kts 270°
2026-04-14 14:49 33.41991 37.47070 24910 ft 322 kts 270°
2026-04-14 14:49 33.41855 37.44454 24906 ft 309 kts 271°
2026-04-14 14:49 33.41723 37.41940 24905 ft 296 kts 271°
2026-04-14 14:50 33.41596 37.39539 24904 ft 283 kts 271°
2026-04-14 14:50 33.41475 37.37237 24901 ft 271 kts 271°
2026-04-14 14:50 33.41359 37.35028 24879 ft 262 kts 271°
2026-04-14 14:50 33.41246 37.32846 24597 ft 263 kts 271°
2026-04-14 14:51 33.41134 37.30679 24235 ft 265 kts 271°
2026-04-14 14:51 33.41020 37.28466 23854 ft 269 kts 271°
2026-04-14 14:51 33.40902 37.26213 23382 ft 273 kts 271°
2026-04-14 14:51 33.40781 37.23919 22852 ft 279 kts 270°
2026-04-14 14:52 33.40689 37.22197 22427 ft 285 kts 270°
2026-04-14 14:52 33.40558 37.19727 21728 ft 296 kts 270°
2026-04-14 14:52 33.40421 37.17152 20636 ft 319 kts 269°
2026-04-14 14:52 33.40274 37.14402 19472 ft 343 kts 268°
2026-04-14 14:53 33.40116 37.11507 18352 ft 362 kts 268°
2026-04-14 14:53 33.39945 37.08424 17162 ft 377 kts 268°
2026-04-14 14:53 33.39768 37.05260 16300 ft 382 kts 267°
2026-04-14 14:53 33.39590 37.02105 15733 ft 378 kts 267°
2026-04-14 14:54 33.39414 36.98991 15211 ft 374 kts 267°
2026-04-14 14:54 33.39239 36.95892 14645 ft 371 kts 267°
2026-04-14 14:54 33.38810 36.92861 14060 ft 371 kts 257°
2026-04-14 14:54 33.38138 36.89884 13461 ft 369 kts 256°
2026-04-14 14:55 33.37427 36.86946 12887 ft 366 kts 255°
2026-04-14 14:55 33.36721 36.84069 12683 ft 354 kts 255°
2026-04-14 14:55 33.36032 36.81290 12500 ft 342 kts 255°
2026-04-14 14:55 33.35373 36.78649 12414 ft 329 kts 255°
2026-04-14 14:56 33.34102 36.73593 12240 ft 305 kts 255°
2026-04-14 14:56 33.33498 36.71210 12156 ft 294 kts 255°
2026-04-14 14:56 33.32908 36.68899 12037 ft 286 kts 255°
2026-04-14 14:57 33.32333 36.66649 11771 ft 283 kts 255°
2026-04-14 14:57 33.31761 36.64391 11424 ft 284 kts 255°
2026-04-14 14:57 33.31188 36.62121 11111 ft 284 kts 255°
2026-04-14 14:57 33.30625 36.59886 10811 ft 284 kts 255°
2026-04-14 14:58 33.30051 36.57597 10498 ft 284 kts 256°
2026-04-14 14:58 33.29813 36.55313 10238 ft 281 kts 275°
2026-04-14 14:58 33.29983 36.52992 9963 ft 279 kts 276°
2026-04-14 14:58 33.30142 36.50678 9641 ft 279 kts 276°
2026-04-14 14:59 33.30299 36.48370 9341 ft 278 kts 276°
2026-04-14 14:59 33.30458 36.46070 9051 ft 276 kts 276°
2026-04-14 14:59 33.30620 36.43784 8748 ft 273 kts 276°
2026-04-14 14:59 33.30783 36.41533 8299 ft 272 kts 276°
2026-04-14 15:00 33.30952 36.39278 7808 ft 272 kts 276°
2026-04-14 15:00 33.31126 36.37029 7380 ft 270 kts 276°
2026-04-14 15:00 33.31309 36.34807 6944 ft 268 kts 276°
2026-04-14 15:00 33.31299 36.32597 6531 ft 265 kts 255°
2026-04-14 15:01 33.30495 36.30740 6546 ft 252 kts 226°
2026-04-14 15:01 33.29560 36.29876 6550 ft 257 kts 206°
2026-04-14 15:01 33.27200 36.29452 6575 ft 265 kts 169°
2026-04-14 15:01 33.25434 36.30003 6559 ft 259 kts 163°
2026-04-14 15:02 33.23740 36.30638 6355 ft 254 kts 162°
2026-04-14 15:02 33.22106 36.31463 5949 ft 257 kts 146°
2026-04-14 15:02 33.21205 36.32385 5715 ft 258 kts 130°
2026-04-14 15:02 33.20294 36.34251 5345 ft 260 kts 108°
2026-04-14 15:03 33.20061 36.36369 5001 ft 263 kts 86°
2026-04-14 15:03 33.20528 36.38477 4640 ft 266 kts 64°
2026-04-14 15:03 33.21630 36.40168 4541 ft 251 kts 40°
2026-04-14 15:03 33.23113 36.41100 4528 ft 233 kts 10°
2026-04-14 15:04 33.24671 36.40828 4581 ft 231 kts 334°
2026-04-14 15:04 33.26125 36.39999 4569 ft 231 kts 333°
2026-04-14 15:04 33.27537 36.39087 4577 ft 230 kts 330°
2026-04-14 15:04 33.29020 36.38384 4462 ft 231 kts 356°
2026-04-14 15:05 33.30533 36.38851 4330 ft 229 kts 36°
2026-04-14 15:05 33.31642 36.40209 4072 ft 228 kts 51°
2026-04-14 15:05 33.32631 36.41652 3775 ft 220 kts 50°
2026-04-14 15:05 33.33612 36.42997 3489 ft 208 kts 49°
2026-04-14 15:06 33.34533 36.44241 3235 ft 191 kts 49°
2026-04-14 15:06 33.35385 36.45394 2990 ft 179 kts 49°
2026-04-14 15:06 33.36172 36.46462 2758 ft 168 kts 48°
2026-04-14 15:06 33.36911 36.47462 2555 ft 153 kts 47°
2026-04-14 15:07 33.37612 36.48412 2315 ft 153 kts 47°
2026-04-14 15:07 33.38305 36.49349 2143 ft 148 kts 46°
2026-04-14 15:07 33.38982 36.50253 2038 ft 139 kts 45°
2026-04-14 15:07 33.39521 36.50982 2037 ft 95 kts 49°
2026-04-14 15:08 33.39862 36.51431 2030 ft 51 kts 47°
2026-04-14 15:08 33.40050 36.51687 2037 ft 38 kts 49°
2026-04-14 15:08 33.40221 36.51920 2034 ft 37 kts 48°
2026-04-14 15:08 33.40395 36.52155 2031 ft 37 kts 48°
2026-04-14 15:09 33.40534 36.52338 2024 ft 25 kts 47°
2026-04-14 15:09 33.40652 36.52432 2023 ft 21 kts
2026-04-14 15:09 33.40751 36.52390 2025 ft 13 kts 318°
2026-04-14 15:09 33.40784 36.52356 2030 ft 0 kts 321°
2026-04-14 15:10 33.40785 36.52355 2025 ft 2 kts 321°
2026-04-14 15:11 33.40829 36.52314 2033 ft 13 kts 322°
2026-04-14 15:11 33.40926 36.52215 2026 ft 22 kts 319°
2026-04-14 15:11 33.41042 36.52094 2027 ft 22 kts 321°
2026-04-14 15:11 33.41130 36.51979 2033 ft 16 kts 267°
2026-04-14 15:12 33.41067 36.51873 2029 ft 16 kts 208°
2026-04-14 15:12 33.40977 36.51922 2028 ft 11 kts 141°
2026-04-14 15:12 33.40967 36.51986 2027 ft 8 kts 71°
2026-04-14 15:12 33.40988 36.52028 2033 ft 2 kts 55°
2026-04-14 15:13 33.40990 36.52033 2033 ft 0 kts 54°